Marrakech, Morocco

7:25 AM WEST on August 29, 2015 (GMT +0100)
Menara | | Change Station
CLOSE
Current Station
Airport
Location: Marrakech,
Elevation: 1529 ft
Nearby Weather Stations

Elev 1529 ft 31.61 °N, 8.04 °W | Updated 25 minutes ago

Scattered Clouds
Scattered Clouds
81 °F
Feels Like 82 °F
N
4
Wind Variable Wind from North

Today
High -- | Low -- °F
--% Chance of Precip.
Yesterday
High -- | Low -- °F
Precip. -- in
7:05 AM 8:00 PM
Full, 100% visible
Pressure 29.86 in
Visibility 6.2 miles
Clouds Mostly Cloudy 3300 ft
Scattered Clouds 8000 ft
Heat Index 82 °F
Dew Point 61 °F
Humidity 51%
Rainfall 0.00 in
Snow Depth Not available.
UV 0 out of 12
Pollen Not available.
Air Quality Not available.
Flu Activity Not available.
METAR GMMX 290600Z 01003KT 340V060 9999 BKN033 SCT080 27/16 Q1011 NOSIG
Pressure 29.86 in
Visibility 6.2 miles
Clouds Mostly Cloudy 3300 ft
Scattered Clouds 8000 ft
Heat Index 82 °F
Dew Point 61 °F
Humidity 51%
Rainfall 0.00 in
Snow Depth Not available.
UV 0 out of 12
Pollen Not available.
Air Quality Not available.
Flu Activity Not available.
METAR GMMX 290600Z 01003KT 340V060 9999 BKN033 SCT080 27/16 Q1011 NOSIG

10-Day Weather Forecast

×

Almanac

Astronomy

Aug. 29, 2015 Rise Set
Actual Time
Civil Twilight
Nautical Twilight
Astronomical Twilight
Moon
Length of Visible Light
Length of Day
Tomorrow will be .
, % of the Moon is Illuminated

Today's Extremes

Country Highs Country Lows

Community

WunderPhotos

Upload Photos

1,850,622 photos uploaded!

WunderBlogs® & News

Nearby

Air Quality

  Air Quality AQ Index Pollutant
Not available.

Snow Depth

Station Depth Elevation

Earthquake Activity

City Distance Mag. Time & Date
Minimum magnitude displayed is 2.5.

Coastal Water Temperatures

Place Temperature

Stations

Nearby Weather Stations

Station Location Temp. Windchill Dew Point Humidity Wind Precip. Elev Updated Type